Terug naar catalogus

STARLINK-35450

ActiefCommunicatieVLEO
NORAD 65868·PAYLOAD·🇺🇸 United States

Gelanceerd Oct 3, 2025 vanaf Vandenberg Space Force Base

Loading…

Volgende Passages (komende 24 uur)

TLE

VersSource: CelesTrak SupGP

Epoch: Sep 15, 2026, 03:59 UTC

1 65868C 25223Q   26258.16645833  .00030631  00000+0  90505-3 0  2588
2 65868  53.1556 130.4601 0001211  87.1560  12.7964 15.34373282    15

Volg STARLINK-35450 in realtime met AllMySat

Download on the App Store